Regional Weather Roundup
Issued by NWS

Home | Current Version | Previous Version | Graphics & Text | Print | Product List | Glossary On
Versions: 1 2 3 4 5 6 7 8 9 10 11 12 13 14 15 16 17 18 19 20 21 22 23 24 25 26 27 28 29 30 31 32 33 34 35 36 37 38 39 40 41 42 43 44 45 46 47 48 49 50
000
ASUS44 KMEG 011710
RWRTN
TENNESSEE HOURLY STATE WEATHER ROUNDUP
NATIONAL WEATHER SERVICE MEMPHIS TN
1200 PM CDT SAT OCT 01 2016

TNZ002-004-019-021-049-052-054-088>092-011800-
WEST TENNESSEE

CITY           SKY/WX    TMP DP  RH WIND       PRES   REMARKS
MEMPHIS INTL   PTSUNNY   74  56  53 W6        30.10F
NWS MEMPHIS      N/A     74 N/A N/A MISG        N/A
JACKSON        PTSUNNY  N/A N/A N/A W7        30.09F
DYERSBURG      MOSUNNY  N/A N/A N/A MISG        N/A
UNION CITY     PTSUNNY   72  59  64 W10       30.06F
PARIS          CLOUDY    66  57  72 VRB5      30.08F
HUNTINGDON     PTSUNNY   72  59  64 W8G15     30.07S
LEXINGTON      PTSUNNY   72  57  60 SW7       30.09F
$$

TNZ008-025-027-028-033-062-065-066-011800-
NORTH MIDDLE TENNESSEE

CITY           SKY/WX    TMP DP  RH WIND       PRES   REMARKS
NASHVILLE      PTSUNNY   68  57  68 W7        30.10S
PORTLAND       CLOUDY    66  59  77 SW7       30.08S
CLARKSVILLE    PTSUNNY   67  59  75 SW7       30.07F
SMYRNA         PTSUNNY   70  57  63 W12       30.10S
COOKEVILLE     PTSUNNY   73  57  56 SW12      30.09S
GALLATIN       CLOUDY    68  59  73 VRB6G12   30.11F
CROSSVILLE     PTSUNNY   66  51  58 W10       30.12F
$$

TNZ061-075-076-078-094-096-097-011800-
SOUTH MIDDLE TENNESSEE

CITY           SKY/WX    TMP DP  RH WIND       PRES   REMARKS
FAYETTEVILLE   MOSUNNY   73  54  49 S7        30.10F
TULLAHOMA      MOSUNNY   72  54  53 SW10      30.11F
WINCHESTER     PTSUNNY   70  54  56 NW7       30.11F
MCMINNVILLE    MOSUNNY   73  55  53 SW8       30.10F
COLUMBIA       PTSUNNY   72  63  73 VRB6      30.08F
SHELBYVILLE    PTSUNNY   75  57  53 SW7       30.10F
$$

TNZ017-018-042-046-047-011800-
NORTHEAST TENNESSEE

CITY           SKY/WX    TMP DP  RH WIND       PRES   REMARKS
TRI CITIES     MOSUNNY   69  51  52 VRB3      30.11F
ELIZABETHTON   SUNNY     70  50  49 CALM      30.10F
$$

TNZ012-013-036-069-073-074-011800-
CENTRAL EAST TENNESSEE

CITY           SKY/WX    TMP DP  RH WIND       PRES   REMARKS
KNOXVILLE      PTSUNNY   71  51  49 W8        30.10F
OAK RIDGE      CLOUDY    67  52  58 W3        30.13F
DOWNTOWN KNOXV MOSUNNY   72  52  49 W8        30.11F
GATLINBURG     SUNNY     72  46  40 NW8       30.10F
MORRISTOWN     MOSUNNY   70  50  49 NW13      30.10F
JACKSBORO      CLOUDY    63  54  72 CALM      30.14F
$$

TNZ083-085-099-011800-
SOUTHEAST TENNESSEE

CITY           SKY/WX    TMP DP  RH WIND       PRES   REMARKS
CHATTANOOGA    MOSUNNY   73  51  46 SW9       30.11F
$$

SKY/WX REPORTED AS FAIR MEANS FEW OR NO CLOUDS BELOW
12 THOUSAND FEET.





USA.gov is the U.S. government's official web portal to all federal, state and local government web resources and services.